Time,TemperatureF,DewpointF,PressureIn,WindDirection,WindDirectionDegrees,WindSpeedMPH,WindSpeedGustMPH,Humidity,HourlyPrecipIn,Conditions,Clouds,dailyrainin,SoftwareType,DateUTC
2013-04-21 00:03:00,33.8,28.6,29.93,North,0,0.0,0.0,81,0.00,,SKC,0.00,VWS V13.00,2013-04-21 06:03:00,
2013-04-21 00:08:00,33.8,28.9,29.93,North,0,0.0,0.0,82,0.00,,SKC,0.00,VWS V13.00,2013-04-21 06:08:00,
2013-04-21 00:13:00,33.6,28.7,29.93,North,0,0.0,0.0,82,0.00,,SKC,0.00,VWS V13.00,2013-04-21 06:13:00,
2013-04-21 00:18:00,33.3,28.7,29.93,North,0,0.0,0.0,83,0.00,,SKC,0.00,VWS V13.00,2013-04-21 06:18:00,
2013-04-21 00:23:00,33.4,28.8,29.93,North,0,0.0,0.0,83,0.00,,SKC,0.00,VWS V13.00,2013-04-21 06:23:00,
2013-04-21 00:28:00,33.3,28.7,29.93,North,0,0.0,0.0,83,0.00,,SKC,0.00,VWS V13.00,2013-04-21 06:28:00,
2013-04-21 00:33:00,33.1,28.5,29.93,North,0,0.0,0.0,83,0.00,,SKC,0.00,VWS V13.00,2013-04-21 06:33:00,
2013-04-21 00:38:00,33.1,28.8,29.93,North,0,0.0,0.0,84,0.00,,SKC,0.00,VWS V13.00,2013-04-21 06:38:00,
2013-04-21 00:43:00,33.1,28.8,29.93,North,0,0.0,0.0,84,0.00,,SKC,0.00,VWS V13.00,2013-04-21 06:43:00,
2013-04-21 00:48:00,33.1,28.8,29.93,North,0,0.0,0.0,84,0.00,,SKC,0.00,VWS V13.00,2013-04-21 06:48:00,
2013-04-21 00:53:00,33.1,28.8,29.93,North,0,0.0,0.0,84,0.00,,SKC,0.00,VWS V13.00,2013-04-21 06:53:00,
2013-04-21 00:58:00,33.1,28.8,29.93,North,0,0.0,0.0,84,0.00,,SKC,0.00,VWS V13.00,2013-04-21 06:58:00,
2013-04-21 01:03:00,33.1,28.8,29.93,North,0,0.0,0.0,84,0.00,,SKC,0.00,VWS V13.00,2013-04-21 07:03:00,
2013-04-21 01:08:00,32.9,28.6,29.93,North,0,0.0,0.0,84,0.00,,SKC,0.00,VWS V13.00,2013-04-21 07:08:00,
2013-04-21 01:13:00,32.9,28.6,29.93,North,0,0.0,0.0,84,0.00,,SKC,0.00,VWS V13.00,2013-04-21 07:13:00,
2013-04-21 01:18:00,32.9,28.6,29.93,North,0,0.0,0.0,84,0.00,,SKC,0.00,VWS V13.00,2013-04-21 07:18:00,
2013-04-21 01:24:00,32.9,28.6,29.93,North,0,0.0,0.0,84,0.00,,SKC,0.00,VWS V13.00,2013-04-21 07:24:00,
2013-04-21 01:29:00,32.7,28.4,29.93,North,0,0.0,0.0,84,0.00,,SKC,0.00,VWS V13.00,2013-04-21 07:29:00,
2013-04-21 01:34:00,32.5,28.2,29.93,North,0,0.0,0.0,84,0.00,,SKC,0.00,VWS V13.00,2013-04-21 07:34:00,
2013-04-21 01:39:00,32.4,27.8,29.93,North,0,0.0,0.0,83,0.00,,SKC,0.00,VWS V13.00,2013-04-21 07:39:00,
2013-04-21 01:44:00,32.2,27.6,29.93,North,0,0.0,0.0,83,0.00,,SKC,0.00,VWS V13.00,2013-04-21 07:44:00,
2013-04-21 01:49:00,32.2,27.9,29.93,North,0,0.0,0.0,84,0.00,,SKC,0.00,VWS V13.00,2013-04-21 07:49:00,
2013-04-21 01:54:00,32.5,28.2,29.93,North,0,0.0,0.0,84,0.00,,SKC,0.00,VWS V13.00,2013-04-21 07:54:00,
2013-04-21 01:59:00,32.5,28.2,29.93,North,0,0.0,0.0,84,0.00,,SKC,0.00,VWS V13.00,2013-04-21 07:59:00,
2013-04-21 02:04:00,32.5,28.2,29.93,North,0,0.0,0.0,84,0.00,,SKC,0.00,VWS V13.00,2013-04-21 08:04:00,
2013-04-21 02:09:00,32.2,27.9,29.93,North,0,0.0,0.0,84,0.00,,SKC,0.00,VWS V13.00,2013-04-21 08:09:00,
2013-04-21 02:14:00,32.2,27.9,29.93,North,0,0.0,0.0,84,0.00,,SKC,0.00,VWS V13.00,2013-04-21 08:14:00,
2013-04-21 02:19:00,32.2,27.9,29.93,North,0,0.0,0.0,84,0.00,,SKC,0.00,VWS V13.00,2013-04-21 08:19:00,
2013-04-21 02:24:00,32.2,27.9,29.93,North,0,0.0,0.0,84,0.00,,SKC,0.00,VWS V13.00,2013-04-21 08:24:00,
2013-04-21 02:29:00,32.2,27.9,29.93,North,0,0.0,0.0,84,0.00,,SKC,0.00,VWS V13.00,2013-04-21 08:29:00,
2013-04-21 02:34:00,32.0,27.7,29.93,North,0,0.0,0.0,84,0.00,,SKC,0.00,VWS V13.00,2013-04-21 08:34:00,
2013-04-21 02:39:00,32.0,27.7,29.93,North,0,0.0,0.0,84,0.00,,SKC,0.00,VWS V13.00,2013-04-21 08:39:00,
2013-04-21 02:44:00,31.8,27.3,29.93,North,0,0.0,0.0,83,0.00,,SKC,0.00,VWS V13.00,2013-04-21 08:44:00,
2013-04-21 02:49:00,31.6,27.1,29.93,North,0,0.0,0.0,83,0.00,,SKC,0.00,VWS V13.00,2013-04-21 08:49:00,
2013-04-21 02:54:00,31.6,27.4,29.93,North,0,0.0,0.0,84,0.00,,SKC,0.00,VWS V13.00,2013-04-21 08:54:00,
2013-04-21 02:59:00,31.6,27.4,29.93,North,0,0.0,0.0,84,0.00,,SKC,0.00,VWS V13.00,2013-04-21 08:59:00,
2013-04-21 03:04:00,31.5,27.2,29.93,North,0,0.0,0.0,84,0.00,,SKC,0.00,VWS V13.00,2013-04-21 09:04:00,
2013-04-21 03:09:00,31.3,27.0,29.93,North,0,0.0,0.0,84,0.00,,SKC,0.00,VWS V13.00,2013-04-21 09:09:00,
2013-04-21 03:14:00,31.5,27.2,29.93,North,0,0.0,0.0,84,0.00,,SKC,0.00,VWS V13.00,2013-04-21 09:14:00,
2013-04-21 03:19:00,31.3,27.0,29.93,North,0,0.0,0.0,84,0.00,,SKC,0.00,VWS V13.00,2013-04-21 09:19:00,
2013-04-21 03:24:00,31.6,27.4,29.93,North,0,0.0,0.0,84,0.00,,SKC,0.00,VWS V13.00,2013-04-21 09:24:00,
2013-04-21 03:30:00,31.6,27.4,29.93,North,0,0.0,0.0,84,0.00,,SKC,0.00,VWS V13.00,2013-04-21 09:30:00,
2013-04-21 03:35:00,31.6,27.4,29.93,North,0,0.0,0.0,84,0.00,,SKC,0.00,VWS V13.00,2013-04-21 09:35:00,
2013-04-21 03:40:00,31.6,27.4,29.93,North,0,0.0,0.0,84,0.00,,SKC,0.00,VWS V13.00,2013-04-21 09:40:00,
2013-04-21 03:45:00,31.5,27.2,29.93,North,0,0.0,0.0,84,0.00,,SKC,0.00,VWS V13.00,2013-04-21 09:45:00,
2013-04-21 03:50:00,31.5,27.2,29.93,North,0,0.0,0.0,84,0.00,,SKC,0.00,VWS V13.00,2013-04-21 09:50:00,
2013-04-21 03:55:00,31.3,26.7,29.93,North,0,0.0,0.0,83,0.00,,SKC,0.00,VWS V13.00,2013-04-21 09:55:00,
2013-04-21 04:00:00,31.3,26.7,29.93,North,0,0.0,0.0,83,0.00,,SKC,0.00,VWS V13.00,2013-04-21 10:00:00,
2013-04-21 04:05:00,31.1,26.5,29.93,North,0,0.0,0.0,83,0.00,,SKC,0.00,VWS V13.00,2013-04-21 10:05:00,
2013-04-21 04:10:00,31.1,26.5,29.93,North,0,0.0,0.0,83,0.00,,SKC,0.00,VWS V13.00,2013-04-21 10:10:00,
2013-04-21 04:15:00,31.1,26.5,29.93,North,0,0.0,0.0,83,0.00,,SKC,0.00,VWS V13.00,2013-04-21 10:15:00,
2013-04-21 04:20:00,31.1,26.5,29.93,North,0,0.0,0.0,83,0.00,,SKC,0.00,VWS V13.00,2013-04-21 10:20:00,
2013-04-21 04:25:00,31.1,26.5,29.93,North,0,0.0,0.0,83,0.00,,SKC,0.00,VWS V13.00,2013-04-21 10:25:00,
2013-04-21 04:30:00,31.1,26.5,29.93,North,0,0.0,0.0,83,0.00,,SKC,0.00,VWS V13.00,2013-04-21 10:30:00,
2013-04-21 04:35:00,30.9,26.4,29.93,North,0,0.0,0.0,83,0.00,,SKC,0.00,VWS V13.00,2013-04-21 10:35:00,
2013-04-21 04:40:00,30.7,25.9,29.93,North,0,0.0,0.0,82,0.00,,SKC,0.00,VWS V13.00,2013-04-21 10:40:00,
2013-04-21 04:45:00,30.6,25.7,29.93,North,0,0.0,0.0,82,0.00,,SKC,0.00,VWS V13.00,2013-04-21 10:45:00,
2013-04-21 04:50:00,30.4,25.5,29.93,North,0,0.0,0.0,82,0.00,,SKC,0.00,VWS V13.00,2013-04-21 10:50:00,
2013-04-21 04:55:00,30.4,25.5,29.93,North,0,0.0,0.0,82,0.00,,SKC,0.00,VWS V13.00,2013-04-21 10:55:00,
2013-04-21 05:00:00,30.2,25.4,29.93,North,0,0.0,0.0,82,0.00,,SKC,0.00,VWS V13.00,2013-04-21 11:00:00,
2013-04-21 05:05:00,30.4,25.5,29.93,North,0,0.0,0.0,82,0.00,,SKC,0.00,VWS V13.00,2013-04-21 11:05:00,
2013-04-21 05:10:00,30.2,25.4,29.93,North,0,0.0,0.0,82,0.00,,SKC,0.00,VWS V13.00,2013-04-21 11:10:00,
2013-04-21 05:15:00,30.2,25.4,29.93,North,0,0.0,0.0,82,0.00,,SKC,0.00,VWS V13.00,2013-04-21 11:15:00,
2013-04-21 05:20:00,30.0,25.2,29.93,North,0,0.0,0.0,82,0.00,,SKC,0.00,VWS V13.00,2013-04-21 11:20:00,
2013-04-21 05:25:00,30.0,25.2,29.93,North,0,0.0,0.0,82,0.00,,SKC,0.00,VWS V13.00,2013-04-21 11:25:00,
2013-04-21 05:30:00,29.8,25.0,29.93,North,0,0.0,0.0,82,0.00,,SKC,0.00,VWS V13.00,2013-04-21 11:30:00,
2013-04-21 05:35:00,29.8,25.0,29.93,North,0,0.0,0.0,82,0.00,,SKC,0.00,VWS V13.00,2013-04-21 11:35:00,
2013-04-21 05:40:00,29.8,25.0,29.93,North,0,0.0,0.0,82,0.00,,SKC,0.00,VWS V13.00,2013-04-21 11:40:00,
2013-04-21 05:45:00,29.8,25.0,29.93,North,0,0.0,0.0,82,0.00,,SKC,0.00,VWS V13.00,2013-04-21 11:45:00,
2013-04-21 05:51:00,29.8,25.0,29.93,North,0,0.0,0.0,82,0.00,,SKC,0.00,VWS V13.00,2013-04-21 11:51:00,
2013-04-21 05:55:00,29.8,25.0,29.93,North,0,0.0,0.0,82,0.00,,SKC,0.00,VWS V13.00,2013-04-21 11:55:00,
2013-04-21 06:01:00,29.8,25.0,29.93,North,0,0.0,0.0,82,0.00,,SKC,0.00,VWS V13.00,2013-04-21 12:01:00,
2013-04-21 06:06:00,29.8,25.0,29.93,North,0,0.0,0.0,82,0.00,,SKC,0.00,VWS V13.00,2013-04-21 12:06:00,
2013-04-21 06:11:00,29.7,24.9,29.93,North,0,0.0,0.0,82,0.00,,SKC,0.00,VWS V13.00,2013-04-21 12:11:00,
2013-04-21 06:16:00,29.5,24.7,29.93,North,0,0.0,0.0,82,0.00,,SKC,0.00,VWS V13.00,2013-04-21 12:16:00,
2013-04-21 06:21:00,29.5,24.7,29.93,North,0,0.0,0.0,82,0.00,,SKC,0.00,VWS V13.00,2013-04-21 12:21:00,
2013-04-21 06:26:00,29.5,24.7,29.93,North,0,0.0,0.0,82,0.00,,SKC,0.00,VWS V13.00,2013-04-21 12:26:00,
2013-04-21 06:31:00,29.5,24.7,29.93,North,0,0.0,0.0,82,0.00,,SKC,0.00,VWS V13.00,2013-04-21 12:31:00,
2013-04-21 06:36:00,29.3,24.5,29.93,North,0,0.0,0.0,82,0.00,,SKC,0.00,VWS V13.00,2013-04-21 12:36:00,
2013-04-21 06:41:00,29.3,24.5,29.93,North,0,0.0,0.0,82,0.00,,SKC,0.00,VWS V13.00,2013-04-21 12:41:00,
2013-04-21 06:46:00,29.3,24.5,29.93,North,0,0.0,0.0,82,0.00,,SKC,0.00,VWS V13.00,2013-04-21 12:46:00,
2013-04-21 06:51:00,29.3,24.5,29.93,North,0,0.0,0.0,82,0.00,,SKC,0.00,VWS V13.00,2013-04-21 12:51:00,
2013-04-21 06:56:00,29.8,25.0,29.93,North,0,0.0,0.0,82,0.00,,SKC,0.00,VWS V13.00,2013-04-21 12:56:00,
2013-04-21 07:01:00,30.0,25.2,29.93,North,0,0.0,0.0,82,0.00,,SKC,0.00,VWS V13.00,2013-04-21 13:01:00,
2013-04-21 07:06:00,30.4,25.5,29.93,North,0,0.0,0.0,82,0.00,,SKC,0.00,VWS V13.00,2013-04-21 13:06:00,
2013-04-21 07:11:00,31.1,26.3,29.93,North,0,0.0,0.0,82,0.00,,SKC,0.00,VWS V13.00,2013-04-21 13:11:00,
2013-04-21 07:16:00,32.9,27.7,29.93,North,0,0.0,0.0,81,0.00,,SKC,0.00,VWS V13.00,2013-04-21 13:16:00,
2013-04-21 07:21:00,34.0,28.2,29.93,North,0,0.0,0.0,79,0.00,,SKC,0.00,VWS V13.00,2013-04-21 13:21:00,
2013-04-21 07:26:00,33.6,27.2,29.93,North,0,0.0,0.0,77,0.00,,SKC,0.00,VWS V13.00,2013-04-21 13:26:00,
2013-04-21 07:32:00,33.6,26.9,29.93,North,0,0.0,0.0,76,0.00,,SKC,0.00,VWS V13.00,2013-04-21 13:32:00,
2013-04-21 07:37:00,34.2,27.1,29.93,North,0,0.0,0.0,75,0.00,,SKC,0.00,VWS V13.00,2013-04-21 13:37:00,
2013-04-21 07:42:00,34.5,27.4,29.93,North,0,0.0,0.0,75,0.00,,SKC,0.00,VWS V13.00,2013-04-21 13:42:00,
2013-04-21 07:47:00,34.7,27.3,29.93,North,0,0.0,0.0,74,0.00,,SKC,0.00,VWS V13.00,2013-04-21 13:47:00,
2013-04-21 07:52:00,35.1,27.6,29.93,North,0,0.0,0.0,74,0.00,,SKC,0.00,VWS V13.00,2013-04-21 13:52:00,
2013-04-21 07:57:00,35.6,27.8,29.93,North,0,0.0,0.0,73,0.00,,SKC,0.00,VWS V13.00,2013-04-21 13:57:00,
2013-04-21 08:02:00,36.0,28.2,29.93,North,0,0.0,0.0,73,0.00,,SKC,0.00,VWS V13.00,2013-04-21 14:02:00,
2013-04-21 08:07:00,36.3,28.2,29.93,North,0,0.0,0.0,72,0.00,,SKC,0.00,VWS V13.00,2013-04-21 14:07:00,
2013-04-21 08:12:00,36.5,28.0,29.93,North,0,0.0,0.0,71,0.00,,SKC,0.00,VWS V13.00,2013-04-21 14:12:00,
2013-04-21 08:17:00,36.5,27.3,29.93,North,0,0.0,0.0,69,0.00,,SKC,0.00,VWS V13.00,2013-04-21 14:17:00,
2013-04-21 08:22:00,36.3,27.1,29.93,North,0,0.0,0.0,69,0.00,,SKC,0.00,VWS V13.00,2013-04-21 14:22:00,
2013-04-21 08:27:00,36.5,27.3,29.93,North,0,0.0,0.0,69,0.00,,SKC,0.00,VWS V13.00,2013-04-21 14:27:00,
2013-04-21 08:32:00,36.7,27.1,29.93,North,0,0.0,0.0,68,0.00,,SKC,0.00,VWS V13.00,2013-04-21 14:32:00,
2013-04-21 08:37:00,36.9,26.9,29.93,North,0,0.0,0.0,67,0.00,,SKC,0.00,VWS V13.00,2013-04-21 14:37:00,
2013-04-21 08:42:00,37.0,26.8,29.93,North,0,0.0,0.0,66,0.00,,SKC,0.00,VWS V13.00,2013-04-21 14:42:00,
2013-04-21 08:47:00,37.0,26.8,29.93,North,0,0.0,0.0,66,0.00,,SKC,0.00,VWS V13.00,2013-04-21 14:47:00,
2013-04-21 08:52:00,37.4,26.7,29.93,North,0,0.0,0.0,65,0.00,,SKC,0.00,VWS V13.00,2013-04-21 14:52:00,
2013-04-21 08:58:00,37.6,26.9,29.93,North,0,0.0,0.0,65,0.00,,SKC,0.00,VWS V13.00,2013-04-21 14:58:00,
2013-04-21 09:03:00,37.9,27.2,29.93,North,0,0.0,0.0,65,0.00,,SKC,0.00,VWS V13.00,2013-04-21 15:03:00,
2013-04-21 09:08:00,38.3,28.0,29.93,North,0,0.0,0.0,66,0.00,,SKC,0.00,VWS V13.00,2013-04-21 15:08:00,
2013-04-21 09:13:00,38.8,27.7,29.93,North,0,0.0,0.0,64,0.00,,SKC,0.00,VWS V13.00,2013-04-21 15:13:00,
2013-04-21 09:18:00,39.7,27.4,29.93,North,0,0.0,0.0,61,0.00,,SKC,0.00,VWS V13.00,2013-04-21 15:18:00,
2013-04-21 09:23:00,40.6,27.5,29.93,North,0,0.0,0.0,59,0.00,,SKC,0.00,VWS V13.00,2013-04-21 15:23:00,
2013-04-21 09:28:00,41.7,27.6,29.93,North,0,0.0,0.0,57,0.00,,SKC,0.00,VWS V13.00,2013-04-21 15:28:00,
2013-04-21 09:33:00,42.8,27.8,29.93,North,0,0.0,0.0,55,0.00,,SKC,0.00,VWS V13.00,2013-04-21 15:33:00,
2013-04-21 09:38:00,43.9,26.9,29.93,North,0,0.0,0.0,51,0.00,,SKC,0.00,VWS V13.00,2013-04-21 15:38:00,
2013-04-21 09:43:00,44.6,26.1,29.93,North,0,0.0,0.0,48,0.00,,SKC,0.00,VWS V13.00,2013-04-21 15:43:00,
2013-04-21 09:48:00,45.3,26.3,29.93,North,0,0.0,0.0,47,0.00,,SKC,0.00,VWS V13.00,2013-04-21 15:48:00,
2013-04-21 09:53:00,46.4,24.0,29.93,North,0,0.0,0.0,41,0.00,,SKC,0.00,VWS V13.00,2013-04-21 15:53:00,
2013-04-21 09:58:00,46.9,23.3,29.93,North,0,0.0,0.0,39,0.00,,SKC,0.00,VWS V13.00,2013-04-21 15:58:00,
2013-04-21 10:03:00,47.5,23.8,29.93,North,0,0.0,0.0,39,0.00,,SKC,0.00,VWS V13.00,2013-04-21 16:03:00,
2013-04-21 10:08:00,48.0,23.6,29.93,North,0,0.0,0.0,38,0.00,,SKC,0.00,VWS V13.00,2013-04-21 16:08:00,
2013-04-21 10:13:00,48.2,23.2,29.93,North,0,0.0,0.0,37,0.00,,SKC,0.00,VWS V13.00,2013-04-21 16:13:00,
2013-04-21 10:18:00,48.2,23.2,29.93,North,0,0.0,0.0,37,0.00,,SKC,0.00,VWS V13.00,2013-04-21 16:18:00,
2013-04-21 10:23:00,48.2,23.2,29.93,North,0,0.0,0.0,37,0.00,,SKC,0.00,VWS V13.00,2013-04-21 16:23:00,
2013-04-21 10:28:00,47.7,22.0,29.93,North,0,0.0,0.0,36,0.00,,SKC,0.00,VWS V13.00,2013-04-21 16:28:00,
2013-04-21 10:33:00,47.3,22.4,29.93,North,0,0.0,0.0,37,0.00,,SKC,0.00,VWS V13.00,2013-04-21 16:33:00,
2013-04-21 10:38:00,46.8,22.5,29.93,North,0,0.0,0.0,38,0.00,,SKC,0.00,VWS V13.00,2013-04-21 16:38:00,
2013-04-21 10:43:00,46.6,22.4,29.93,North,0,0.0,0.0,38,0.00,,SKC,0.00,VWS V13.00,2013-04-21 16:43:00,
2013-04-21 10:49:00,46.6,22.4,29.93,North,0,0.0,0.0,38,0.00,,SKC,0.00,VWS V13.00,2013-04-21 16:49:00,
2013-04-21 10:54:00,46.2,22.0,29.93,North,0,0.0,0.0,38,0.00,,SKC,0.00,VWS V13.00,2013-04-21 16:54:00,
2013-04-21 10:59:00,45.9,21.7,29.93,North,0,0.0,0.0,38,0.00,,SKC,0.00,VWS V13.00,2013-04-21 16:59:00,
2013-04-21 11:04:00,45.3,21.2,29.93,North,0,0.0,0.0,38,0.00,,SKC,0.00,VWS V13.00,2013-04-21 17:04:00,
2013-04-21 11:09:00,44.8,21.4,29.93,North,0,0.0,0.0,39,0.00,,SKC,0.00,VWS V13.00,2013-04-21 17:09:00,
2013-04-21 11:14:00,44.6,20.6,29.96,North,0,0.0,0.0,38,0.00,,SKC,0.00,VWS V13.00,2013-04-21 17:14:00,
2013-04-21 11:19:00,44.4,21.0,29.96,North,0,0.0,0.0,39,0.00,,SKC,0.00,VWS V13.00,2013-04-21 17:19:00,
2013-04-21 11:24:00,44.6,21.2,29.96,North,0,0.0,0.0,39,0.00,,SKC,0.00,VWS V13.00,2013-04-21 17:24:00,
2013-04-21 11:29:00,45.1,21.1,29.93,North,0,0.0,0.0,38,0.00,,SKC,0.00,VWS V13.00,2013-04-21 17:29:00,
2013-04-21 11:34:00,45.9,21.7,29.93,North,0,0.0,0.0,38,0.00,,SKC,0.00,VWS V13.00,2013-04-21 17:34:00,
2013-04-21 11:39:00,46.6,22.4,29.93,North,0,0.0,0.0,38,0.00,,SKC,0.00,VWS V13.00,2013-04-21 17:39:00,
2013-04-21 11:44:00,47.3,22.4,29.93,North,0,0.0,0.0,37,0.00,,SKC,0.00,VWS V13.00,2013-04-21 17:44:00,
2013-04-21 11:49:00,47.3,22.4,29.93,North,0,0.0,0.0,37,0.00,,SKC,0.00,VWS V13.00,2013-04-21 17:49:00,
2013-04-21 11:54:00,47.3,22.4,29.93,North,0,0.0,0.0,37,0.00,,SKC,0.00,VWS V13.00,2013-04-21 17:54:00,
2013-04-21 11:59:00,47.8,22.9,29.93,North,0,0.0,0.0,37,0.00,,SKC,0.00,VWS V13.00,2013-04-21 17:59:00,
2013-04-21 12:04:00,48.6,22.8,29.93,North,0,0.0,0.0,36,0.00,,SKC,0.00,VWS V13.00,2013-04-21 18:04:00,
2013-04-21 12:09:00,48.7,23.0,29.93,North,0,0.0,0.0,36,0.00,,SKC,0.00,VWS V13.00,2013-04-21 18:09:00,
2013-04-21 12:14:00,49.1,24.0,29.93,North,0,0.0,0.0,37,0.00,,SKC,0.00,VWS V13.00,2013-04-21 18:14:00,
2013-04-21 12:19:00,49.1,23.3,29.93,North,0,0.0,0.0,36,0.00,,SKC,0.00,VWS V13.00,2013-04-21 18:19:00,
2013-04-21 12:24:00,49.5,24.3,29.93,North,0,0.0,0.0,37,0.00,,SKC,0.00,VWS V13.00,2013-04-21 18:24:00,
2013-04-21 12:29:00,49.8,24.6,29.93,North,0,0.0,0.0,37,0.00,,SKC,0.00,VWS V13.00,2013-04-21 18:29:00,
2013-04-21 12:34:00,49.8,24.6,29.93,North,0,0.0,0.0,37,0.00,,SKC,0.00,VWS V13.00,2013-04-21 18:34:00,
2013-04-21 12:39:00,49.5,23.6,29.93,North,0,0.0,0.0,36,0.00,,SKC,0.00,VWS V13.00,2013-04-21 18:39:00,
2013-04-21 12:45:00,49.3,24.1,29.93,North,0,0.0,0.0,37,0.00,,SKC,0.00,VWS V13.00,2013-04-21 18:45:00,
2013-04-21 12:50:00,50.0,24.1,29.93,North,0,0.0,0.0,36,0.00,,SKC,0.00,VWS V13.00,2013-04-21 18:50:00,
2013-04-21 12:55:00,50.5,24.6,29.93,North,0,0.0,0.0,36,0.00,,SKC,0.00,VWS V13.00,2013-04-21 18:55:00,
2013-04-21 13:00:00,50.2,24.3,29.93,North,0,0.0,0.0,36,0.00,,SKC,0.00,VWS V13.00,2013-04-21 19:00:00,
2013-04-21 13:05:00,50.4,24.4,29.93,North,0,0.0,0.0,36,0.00,,SKC,0.00,VWS V13.00,2013-04-21 19:05:00,
2013-04-21 13:10:00,50.7,24.8,29.93,North,0,0.0,0.0,36,0.00,,SKC,0.00,VWS V13.00,2013-04-21 19:10:00,
2013-04-21 13:15:00,51.6,24.9,29.93,North,0,0.0,0.0,35,0.00,,SKC,0.00,VWS V13.00,2013-04-21 19:15:00,
2013-04-21 13:20:00,51.1,25.1,29.93,North,0,0.0,0.0,36,0.00,,SKC,0.00,VWS V13.00,2013-04-21 19:20:00,
2013-04-21 13:25:00,51.3,25.2,29.93,North,0,0.0,0.0,36,0.00,,SKC,0.00,VWS V13.00,2013-04-21 19:25:00,
2013-04-21 13:30:00,51.6,25.6,29.93,North,0,0.0,0.0,36,0.00,,SKC,0.00,VWS V13.00,2013-04-21 19:30:00,
2013-04-21 13:35:00,51.6,24.9,29.93,North,0,0.0,0.0,35,0.00,,SKC,0.00,VWS V13.00,2013-04-21 19:35:00,
2013-04-21 13:40:00,51.8,25.0,29.93,North,0,0.0,0.0,35,0.00,,SKC,0.00,VWS V13.00,2013-04-21 19:40:00,
2013-04-21 13:45:00,52.3,26.2,29.91,North,0,0.0,0.0,36,0.00,,SKC,0.00,VWS V13.00,2013-04-21 19:45:00,
2013-04-21 13:50:00,53.6,25.9,29.91,North,0,0.0,0.0,34,0.00,,SKC,0.00,VWS V13.00,2013-04-21 19:50:00,
2013-04-21 13:55:00,54.1,26.4,29.91,North,0,0.0,0.0,34,0.00,,SKC,0.00,VWS V13.00,2013-04-21 19:55:00,
2013-04-21 14:00:00,54.3,25.9,29.91,North,0,0.0,0.0,33,0.00,,SKC,0.00,VWS V13.00,2013-04-21 20:00:00,
2013-04-21 14:05:00,54.5,26.7,29.91,North,0,0.0,0.0,34,0.00,,SKC,0.00,VWS V13.00,2013-04-21 20:05:00,
2013-04-21 14:10:00,53.4,25.1,29.91,North,0,0.0,0.0,33,0.00,,SKC,0.00,VWS V13.00,2013-04-21 20:10:00,
2013-04-21 14:15:00,53.4,25.8,29.91,North,0,0.0,0.0,34,0.00,,SKC,0.00,VWS V13.00,2013-04-21 20:15:00,
2013-04-21 14:20:00,53.4,25.1,29.91,North,0,0.0,0.0,33,0.00,,SKC,0.00,VWS V13.00,2013-04-21 20:20:00,
2013-04-21 14:26:00,52.9,23.9,29.91,North,0,0.0,0.0,32,0.00,,SKC,0.00,VWS V13.00,2013-04-21 20:26:00,
2013-04-21 14:31:00,53.1,25.5,29.91,North,0,0.0,0.0,34,0.00,,SKC,0.00,VWS V13.00,2013-04-21 20:31:00,
2013-04-21 14:36:00,52.3,23.4,29.91,North,0,0.0,0.0,32,0.00,,SKC,0.00,VWS V13.00,2013-04-21 20:36:00,
2013-04-21 14:41:00,53.1,24.7,29.91,North,0,0.0,0.0,33,0.00,,SKC,0.00,VWS V13.00,2013-04-21 20:41:00,
2013-04-21 14:46:00,53.8,25.4,29.91,North,0,0.0,0.0,33,0.00,,SKC,0.00,VWS V13.00,2013-04-21 20:46:00,
2013-04-21 14:51:00,53.8,24.6,29.91,North,0,0.0,0.0,32,0.00,,SKC,0.00,VWS V13.00,2013-04-21 20:51:00,
2013-04-21 14:56:00,53.8,25.4,29.91,North,0,0.0,0.0,33,0.00,,SKC,0.00,VWS V13.00,2013-04-21 20:56:00,
2013-04-21 15:01:00,52.7,22.9,29.91,North,0,0.0,0.0,31,0.00,,SKC,0.00,VWS V13.00,2013-04-21 21:01:00,
2013-04-21 15:06:00,52.3,22.6,29.91,North,0,0.0,0.0,31,0.00,,SKC,0.00,VWS V13.00,2013-04-21 21:06:00,
2013-04-21 15:11:00,52.9,23.9,29.91,North,0,0.0,0.0,32,0.00,,SKC,0.00,VWS V13.00,2013-04-21 21:11:00,
2013-04-21 15:16:00,52.5,22.8,29.91,North,0,0.0,0.0,31,0.00,,SKC,0.00,VWS V13.00,2013-04-21 21:16:00,
2013-04-21 15:21:00,52.7,22.9,29.91,North,0,0.0,0.0,31,0.00,,SKC,0.00,VWS V13.00,2013-04-21 21:21:00,
2013-04-21 15:26:00,52.2,22.5,29.91,North,0,0.0,0.0,31,0.00,,SKC,0.00,VWS V13.00,2013-04-21 21:26:00,
2013-04-21 15:31:00,51.4,21.8,29.91,North,0,0.0,0.0,31,0.00,,SKC,0.00,VWS V13.00,2013-04-21 21:31:00,
2013-04-21 15:36:00,51.1,22.3,29.91,North,0,0.0,0.0,32,0.00,,SKC,0.00,VWS V13.00,2013-04-21 21:36:00,
2013-04-21 15:41:00,51.3,22.4,29.91,North,0,0.0,0.0,32,0.00,,SKC,0.00,VWS V13.00,2013-04-21 21:41:00,
2013-04-21 15:46:00,51.3,22.4,29.88,North,0,0.0,0.0,32,0.00,,SKC,0.00,VWS V13.00,2013-04-21 21:46:00,
2013-04-21 15:51:00,51.4,22.6,29.88,North,0,0.0,0.0,32,0.00,,SKC,0.00,VWS V13.00,2013-04-21 21:51:00,
2013-04-21 15:56:00,51.6,22.7,29.88,North,0,0.0,0.0,32,0.00,,SKC,0.00,VWS V13.00,2013-04-21 21:56:00,
2013-04-21 16:01:00,51.6,22.7,29.88,North,0,0.0,0.0,32,0.00,,SKC,0.00,VWS V13.00,2013-04-21 22:01:00,
2013-04-21 16:06:00,51.4,23.3,29.88,North,0,0.0,0.0,33,0.00,,SKC,0.00,VWS V13.00,2013-04-21 22:06:00,
2013-04-21 16:11:00,51.1,22.3,29.88,North,0,0.0,0.0,32,0.00,,SKC,0.00,VWS V13.00,2013-04-21 22:11:00,
2013-04-21 16:16:00,50.7,22.7,29.88,North,0,0.0,0.0,33,0.00,,SKC,0.00,VWS V13.00,2013-04-21 22:16:00,
2013-04-21 16:21:00,50.4,21.6,29.88,North,0,0.0,0.0,32,0.00,,SKC,0.00,VWS V13.00,2013-04-21 22:21:00,
2013-04-21 16:26:00,50.0,23.4,29.88,North,0,0.0,0.0,35,0.00,,SKC,0.00,VWS V13.00,2013-04-21 22:26:00,
2013-04-21 16:31:00,50.0,22.0,29.88,North,0,0.0,0.0,33,0.00,,SKC,0.00,VWS V13.00,2013-04-21 22:31:00,
2013-04-21 16:37:00,50.2,22.9,29.88,North,0,0.0,0.0,34,0.00,,SKC,0.00,VWS V13.00,2013-04-21 22:37:00,
2013-04-21 16:42:00,50.2,22.9,29.88,North,0,0.0,0.0,34,0.00,,SKC,0.00,VWS V13.00,2013-04-21 22:42:00,
2013-04-21 16:47:00,49.8,23.3,29.88,North,0,0.0,0.0,35,0.00,,SKC,0.00,VWS V13.00,2013-04-21 22:47:00,
2013-04-21 16:52:00,49.6,23.8,29.88,North,0,0.0,0.0,36,0.00,,SKC,0.00,VWS V13.00,2013-04-21 22:52:00,
2013-04-21 16:57:00,49.5,23.0,29.88,North,0,0.0,0.0,35,0.00,,SKC,0.00,VWS V13.00,2013-04-21 22:57:00,
2013-04-21 17:02:00,49.5,23.0,29.88,North,0,0.0,0.0,35,0.00,,SKC,0.00,VWS V13.00,2013-04-21 23:02:00,
2013-04-21 17:07:00,49.6,23.8,29.88,North,0,0.0,0.0,36,0.00,,SKC,0.00,VWS V13.00,2013-04-21 23:07:00,
2013-04-21 17:12:00,49.3,22.8,29.85,North,0,0.0,0.0,35,0.00,,SKC,0.00,VWS V13.00,2013-04-21 23:12:00,
2013-04-21 17:17:00,49.5,23.6,29.85,North,0,0.0,0.0,36,0.00,,SKC,0.00,VWS V13.00,2013-04-21 23:17:00,
2013-04-21 17:22:00,49.3,23.5,29.85,North,0,0.0,0.0,36,0.00,,SKC,0.00,VWS V13.00,2013-04-21 23:22:00,
2013-04-21 17:27:00,49.5,24.3,29.85,North,0,0.0,0.0,37,0.00,,SKC,0.00,VWS V13.00,2013-04-21 23:27:00,
2013-04-21 17:32:00,49.6,23.8,29.85,North,0,0.0,0.0,36,0.00,,SKC,0.00,VWS V13.00,2013-04-21 23:32:00,
2013-04-21 17:37:00,49.8,24.0,29.85,North,0,0.0,0.0,36,0.00,,SKC,0.00,VWS V13.00,2013-04-21 23:37:00,
2013-04-21 17:42:00,49.5,23.6,29.85,North,0,0.0,0.0,36,0.00,,SKC,0.00,VWS V13.00,2013-04-21 23:42:00,
2013-04-21 17:47:00,49.5,23.6,29.85,North,0,0.0,0.0,36,0.00,,SKC,0.00,VWS V13.00,2013-04-21 23:47:00,
2013-04-21 17:52:00,49.8,24.0,29.85,North,0,0.0,0.0,36,0.00,,SKC,0.00,VWS V13.00,2013-04-21 23:52:00,
2013-04-21 17:57:00,50.0,24.1,29.85,North,0,0.0,0.0,36,0.00,,SKC,0.00,VWS V13.00,2013-04-21 23:57:00,
2013-04-21 18:02:00,50.0,24.1,29.85,North,0,0.0,0.0,36,0.00,,SKC,0.00,VWS V13.00,2013-04-22 00:02:00,
2013-04-21 18:07:00,49.8,23.3,29.85,North,0,0.0,0.0,35,0.00,,SKC,0.00,VWS V13.00,2013-04-22 00:07:00,
2013-04-21 18:12:00,50.0,22.8,29.85,North,0,0.0,0.0,34,0.00,,SKC,0.00,VWS V13.00,2013-04-22 00:12:00,
2013-04-21 18:17:00,50.0,23.4,29.85,North,0,0.0,0.0,35,0.00,,SKC,0.00,VWS V13.00,2013-04-22 00:17:00,
2013-04-21 18:22:00,49.8,23.3,29.85,North,0,0.0,0.0,35,0.00,,SKC,0.00,VWS V13.00,2013-04-22 00:22:00,
2013-04-21 18:27:00,49.6,23.1,29.85,North,0,0.0,0.0,35,0.00,,SKC,0.00,VWS V13.00,2013-04-22 00:27:00,
2013-04-21 18:32:00,49.3,22.8,29.85,North,0,0.0,0.0,35,0.00,,SKC,0.00,VWS V13.00,2013-04-22 00:32:00,
2013-04-21 18:37:00,49.3,22.8,29.85,North,0,0.0,0.0,35,0.00,,SKC,0.00,VWS V13.00,2013-04-22 00:37:00,
2013-04-21 18:42:00,49.3,22.8,29.85,North,0,0.0,0.0,35,0.00,,SKC,0.00,VWS V13.00,2013-04-22 00:42:00,
2013-04-21 18:47:00,49.5,23.0,29.85,North,0,0.0,0.0,35,0.00,,SKC,0.00,VWS V13.00,2013-04-22 00:47:00,
2013-04-21 18:52:00,49.5,23.6,29.85,North,0,0.0,0.0,36,0.00,,SKC,0.00,VWS V13.00,2013-04-22 00:52:00,
2013-04-21 18:57:00,49.1,22.6,29.85,North,0,0.0,0.0,35,0.00,,SKC,0.00,VWS V13.00,2013-04-22 00:57:00,
2013-04-21 19:03:00,49.1,22.6,29.85,North,0,0.0,0.0,35,0.00,,SKC,0.00,VWS V13.00,2013-04-22 01:03:00,
2013-04-21 19:08:00,48.7,23.0,29.85,North,0,0.0,0.0,36,0.00,,SKC,0.00,VWS V13.00,2013-04-22 01:08:00,
2013-04-21 19:13:00,48.6,22.2,29.85,North,0,0.0,0.0,35,0.00,,SKC,0.00,VWS V13.00,2013-04-22 01:13:00,
2013-04-21 19:18:00,48.2,22.5,29.85,North,0,0.0,0.0,36,0.00,,SKC,0.00,VWS V13.00,2013-04-22 01:18:00,
2013-04-21 19:23:00,48.0,23.0,29.85,North,0,0.0,0.0,37,0.00,,SKC,0.00,VWS V13.00,2013-04-22 01:23:00,
2013-04-21 19:28:00,47.5,22.5,29.85,North,0,0.0,0.0,37,0.00,,SKC,0.00,VWS V13.00,2013-04-22 01:28:00,
2013-04-21 19:33:00,46.9,22.0,29.85,North,0,0.0,0.0,37,0.00,,SKC,0.00,VWS V13.00,2013-04-22 01:33:00,
2013-04-21 19:38:00,46.6,21.7,29.85,North,0,0.0,0.0,37,0.00,,SKC,0.00,VWS V13.00,2013-04-22 01:38:00,
2013-04-21 19:43:00,46.2,22.0,29.82,North,0,0.0,0.0,38,0.00,,SKC,0.00,VWS V13.00,2013-04-22 01:43:00,
2013-04-21 19:48:00,45.7,21.5,29.82,North,0,0.0,0.0,38,0.00,,SKC,0.00,VWS V13.00,2013-04-22 01:48:00,
2013-04-21 19:53:00,45.3,21.8,29.82,North,0,0.0,0.0,39,0.00,,SKC,0.00,VWS V13.00,2013-04-22 01:53:00,
2013-04-21 19:58:00,45.0,21.5,29.82,North,0,0.0,0.0,39,0.00,,SKC,0.00,VWS V13.00,2013-04-22 01:58:00,
2013-04-21 20:03:00,44.2,22.0,29.82,North,0,0.0,0.0,41,0.00,,SKC,0.00,VWS V13.00,2013-04-22 02:03:00,
2013-04-21 20:08:00,43.9,23.4,29.82,North,0,0.0,0.0,44,0.00,,SKC,0.00,VWS V13.00,2013-04-22 02:08:00,
2013-04-21 20:13:00,43.5,23.6,29.82,North,0,0.0,0.0,45,0.00,,SKC,0.00,VWS V13.00,2013-04-22 02:13:00,
2013-04-21 20:18:00,43.3,24.5,29.82,North,0,0.0,0.0,47,0.00,,SKC,0.00,VWS V13.00,2013-04-22 02:18:00,
2013-04-21 20:23:00,43.0,24.1,29.82,North,0,0.0,0.0,47,0.00,,SKC,0.00,VWS V13.00,2013-04-22 02:23:00,
2013-04-21 20:28:00,42.8,24.5,29.82,North,0,0.0,0.0,48,0.00,,SKC,0.00,VWS V13.00,2013-04-22 02:28:00,
2013-04-21 20:33:00,43.0,24.6,29.82,North,0,0.0,0.0,48,0.00,,SKC,0.00,VWS V13.00,2013-04-22 02:33:00,
2013-04-21 20:38:00,43.0,25.1,29.82,North,0,0.0,0.0,49,0.00,,SKC,0.00,VWS V13.00,2013-04-22 02:38:00,
2013-04-21 20:43:00,43.0,25.1,29.82,North,0,0.0,0.0,49,0.00,,SKC,0.00,VWS V13.00,2013-04-22 02:43:00,
2013-04-21 20:48:00,43.0,25.1,29.82,North,0,0.0,0.0,49,0.00,,SKC,0.00,VWS V13.00,2013-04-22 02:48:00,
2013-04-21 20:53:00,43.3,25.5,29.82,North,0,0.0,0.0,49,0.00,,SKC,0.00,VWS V13.00,2013-04-22 02:53:00,
2013-04-21 20:58:00,43.3,25.5,29.82,North,0,0.0,0.0,49,0.00,,SKC,0.00,VWS V13.00,2013-04-22 02:58:00,
2013-04-21 21:03:00,43.2,25.3,29.82,North,0,0.0,0.0,49,0.00,,SKC,0.00,VWS V13.00,2013-04-22 03:03:00,
2013-04-21 21:09:00,43.0,25.1,29.82,North,0,0.0,0.0,49,0.00,,SKC,0.00,VWS V13.00,2013-04-22 03:09:00,
2013-04-21 21:14:00,43.0,25.1,29.85,North,0,0.0,0.0,49,0.00,,SKC,0.00,VWS V13.00,2013-04-22 03:14:00,
2013-04-21 21:19:00,43.0,24.6,29.85,North,0,0.0,0.0,48,0.00,,SKC,0.00,VWS V13.00,2013-04-22 03:19:00,
2013-04-21 21:24:00,43.0,24.6,29.85,North,0,0.0,0.0,48,0.00,,SKC,0.00,VWS V13.00,2013-04-22 03:24:00,
2013-04-21 21:29:00,43.3,24.0,29.85,North,0,0.0,0.0,46,0.00,,SKC,0.00,VWS V13.00,2013-04-22 03:29:00,
2013-04-21 21:36:00,43.3,24.5,29.85,North,0,0.0,0.0,47,0.00,,SKC,0.00,VWS V13.00,2013-04-22 03:36:00,
2013-04-21 21:41:00,43.3,24.0,29.85,North,0,0.0,0.0,46,0.00,,SKC,0.00,VWS V13.00,2013-04-22 03:41:00,
2013-04-21 21:46:00,43.2,24.3,29.85,North,0,0.0,0.0,47,0.00,,SKC,0.00,VWS V13.00,2013-04-22 03:46:00,
2013-04-21 21:51:00,43.2,24.8,29.85,North,0,0.0,0.0,48,0.00,,SKC,0.00,VWS V13.00,2013-04-22 03:51:00,
2013-04-21 21:56:00,43.0,24.6,29.85,North,0,0.0,0.0,48,0.00,,SKC,0.00,VWS V13.00,2013-04-22 03:56:00,
2013-04-21 22:01:00,42.8,24.0,29.85,North,0,0.0,0.0,47,0.00,,SKC,0.00,VWS V13.00,2013-04-22 04:01:00,
2013-04-21 22:02:00,42.8,23.0,29.85,North,0,0.0,0.0,45,0.00,,SKC,0.00,VWS V13.00,2013-04-22 04:02:00,
2013-04-21 22:07:00,43.2,24.3,29.85,North,0,0.0,0.0,47,0.00,,SKC,0.00,VWS V13.00,2013-04-22 04:07:00,
2013-04-21 22:12:00,43.0,24.6,29.85,North,0,0.0,0.0,48,0.00,,SKC,0.00,VWS V13.00,2013-04-22 04:12:00,
2013-04-21 22:17:00,42.6,24.8,29.85,North,0,0.0,0.0,49,0.00,,SKC,0.00,VWS V13.00,2013-04-22 04:17:00,
2013-04-21 22:22:00,42.4,23.6,29.85,North,0,0.0,0.0,47,0.00,,SKC,0.00,VWS V13.00,2013-04-22 04:22:00,
2013-04-21 22:27:00,42.8,23.5,29.85,North,0,0.0,0.0,46,0.00,,SKC,0.00,VWS V13.00,2013-04-22 04:27:00,
2013-04-21 22:32:00,43.2,24.8,29.85,North,0,0.0,0.0,48,0.00,,SKC,0.00,VWS V13.00,2013-04-22 04:32:00,
2013-04-21 22:37:00,43.5,23.1,29.85,North,0,0.0,0.0,44,0.00,,SKC,0.00,VWS V13.00,2013-04-22 04:37:00,
2013-04-21 22:42:00,43.9,23.4,29.85,North,0,0.0,0.0,44,0.00,,SKC,0.00,VWS V13.00,2013-04-22 04:42:00,
2013-04-21 22:47:00,44.1,24.6,29.85,North,0,0.0,0.0,46,0.00,,SKC,0.00,VWS V13.00,2013-04-22 04:47:00,
2013-04-21 22:52:00,43.7,24.3,29.85,North,0,0.0,0.0,46,0.00,,SKC,0.00,VWS V13.00,2013-04-22 04:52:00,
2013-04-21 22:57:00,43.5,25.1,29.88,North,0,0.0,0.0,48,0.00,,SKC,0.00,VWS V13.00,2013-04-22 04:57:00,
2013-04-21 23:02:00,43.5,24.1,29.88,North,0,0.0,0.0,46,0.00,,SKC,0.00,VWS V13.00,2013-04-22 05:02:00,
2013-04-21 23:07:00,43.5,25.6,29.88,North,0,0.0,0.0,49,0.00,,SKC,0.00,VWS V13.00,2013-04-22 05:07:00,
2013-04-21 23:13:00,43.0,24.1,29.85,North,0,0.0,0.0,47,0.00,,SKC,0.00,VWS V13.00,2013-04-22 05:13:00,
2013-04-21 23:18:00,43.0,24.6,29.85,North,0,0.0,0.0,48,0.00,,SKC,0.00,VWS V13.00,2013-04-22 05:18:00,
2013-04-21 23:23:00,42.4,25.1,29.85,North,0,0.0,0.0,50,0.00,,SKC,0.00,VWS V13.00,2013-04-22 05:23:00,
2013-04-21 23:28:00,42.3,25.4,29.85,North,0,0.0,0.0,51,0.00,,SKC,0.00,VWS V13.00,2013-04-22 05:28:00,
2013-04-21 23:33:00,42.1,25.3,29.85,North,0,0.0,0.0,51,0.00,,SKC,0.00,VWS V13.00,2013-04-22 05:33:00,
2013-04-21 23:38:00,41.9,25.6,29.85,North,0,0.0,0.0,52,0.00,,SKC,0.00,VWS V13.00,2013-04-22 05:38:00,
2013-04-21 23:43:00,41.7,25.4,29.85,North,0,0.0,0.0,52,0.00,,SKC,0.00,VWS V13.00,2013-04-22 05:43:00,
2013-04-21 23:48:00,41.2,25.4,29.85,North,0,0.0,0.0,53,0.00,,SKC,0.00,VWS V13.00,2013-04-22 05:48:00,
2013-04-21 23:53:00,41.0,25.6,29.85,North,0,0.0,0.0,54,0.00,,SKC,0.00,VWS V13.00,2013-04-22 05:53:00,
2013-04-21 23:58:00,40.6,25.8,29.85,North,0,0.0,0.0,55,0.00,,SKC,0.00,VWS V13.00,2013-04-22 05:58:00,